DECAYED

STARLINK-2133, 47406 (Decayed)

Orbit data source: Space-Track

STARLINK-2133, 47406 was a payload satellite owned by SpaceX/Seattle (US) in LEO that was launched on Wed, 20 Jan 2021 UTC via an FALCON 9 launch vehicle from the Air Force Eastern Test Range (AFETR). Payload-class satellites include a variety of spacecraft equipped with specific instruments for various scientific and technological missions. These include communications satellites like Starlink; space stations such as the ISS; scientific satellites like the Hubble; Earth observation satellites from companies like Planet Labs, Umbra, and HawkEye 360; GPS; miniature CubeSats for education and research; and military/defense satellites.

Not visible in the next 10 days
Identifier
47406, 2021-005BK
Orbit
Decayed
Country
Flag of USUS
Related business
Manufacturer
SpaceX/Seattle
Mission
Decayed Commercial Communications
Bus & Motor
STARLINK, Unknown motor
Mass
260 kg wet, ~248 kg dry
Launch date (UTC)
2021-01-20 (5 years ago)
Launch vehicle
FALCON 9
Launch site
Air Force Eastern Test Range (AFETR)
Object type
Payload
Rocket body
Debris
Shape & HBR
Box + 1 Pan, 10.1 m
Radar Cross Section
13.562 m², Large (>1 m²)

Expand to show TLE details & history
Last TLE update: 5 months ago

TLE from 5 months ago
0 STARLINK-2133
1 47406U 21005BK  26030.78311660  .06783928  12337-4  77613-3 0  9992
2 47406  53.0235 151.3733 0007384 328.0956  31.9641 16.36031453278451
Epoch: 2026-01-30T18:47Z
TLE epoch observation values (Epoch: 2026-01-30T18:47:41.274Z)
Latitude
0.00004°
Longitude
99.43484°
Altitude
173.201 km
Speed
7.806 km/s
True Right ascension
10h 05m 29s
True Declination
0° 00' 00"
Sunlit
Object was in full shadow at epoch
Visualization orbit readout
Latitude
Unknown
Longitude
Unknown
Altitude
Unknown
Speed
Unknown
Apparent Right ascension
Unknown
Apparent Declination
Unknown
Sunlit
N/A
Visualization observer readout
Local Sidereal Time
21:29:26
Azimuth
Unknown
Elevation
Unknown
Doppler factor
Unknown
Orbital elements
Apogee altitude
181.512 km
Perigee altitude
171.831 km
Semi-major axis
6,554.809 km
Eccentricity
0.00074
Inclination
53.0235°
RAAN
151.3733°
Arg. of periapsis
328.0956°
True anomaly
32.00893°
Mean anomaly
31.9641°
Eccentric anomaly
31.98651°
Mean motion
4.08981 °/min
Orbital period
88.02 mins
BSTAR
0.00077613
Loading maneuver chart data...
Computing Atmospheric mass density...

Documentation

Showing up to 5 results
|